Location: Detroit
(42.3310°N, 83.0460°W)
Time: 15:38:51
(UTC-04:00)

Courier 1B Rocket - Pass Details

Date: 23 April 2024
Orbit: 920 x 1201 km, 28.2° (Epoch: 19 May)

Event Time Altitude Azimuth Distance (km) Brightness Sun altitude
Exits shadow 05:42:06 11° 227° (SW) 2,978 6.9 -10.3°
Maximum altitude 05:47:47 26° 176° (S) 2,059 6.5 -9.4°
Drops below altitude 10° 05:53:35 10° 123° (ESE) 2,938 8.0 -8.4°
Sets 05:56:44 0° 111° (ESE) 3,846 8.8 -7.9°
